| time (UTC) | temp C | wind direction | speed KPH | gust KPH | rain 1hr cm | rain 24hr cm | rain mn cm | humidity % | barometer mb |
| 20260508115510 | 15 | 117 | 11.3 | 20.9 | 0.00 | 0.00 | 0.00 | 23 | 1026.1 |
| 20260508114510 | 15 | 306 | 4.8 | 16.1 | 0.00 | 0.00 | 0.00 | 23 | 1026.1 |
| 20260508114018 | 15 | 55 | 6.4 | 16.1 | 0.00 | 0.00 | 0.00 | 23 | 1026.2 |
| 20260508113507 | 15 | 41 | 4.8 | 16.1 | 0.00 | 0.00 | 0.00 | 24 | 1026.2 |
| 20260508113010 | 15 | 47 | 6.4 | 11.3 | 0.00 | 0.00 | 0.00 | 23 | 1026.3 |
| 20260508111509 | 15 | 357 | 4.8 | 9.7 | 0.00 | 0.00 | 0.00 | 26 | 1026.2 |
| 20260508111006 | 15 | 103 | 4.8 | 9.7 | 0.00 | 0.00 | 0.00 | 24 | 1026.1 |
| 20260508110506 | 14 | 278 | 3.2 | 9.7 | 0.00 | 0.00 | 0.00 | 24 | 1026.1 |
| 20260508110010 | 14 | 329 | 3.2 | 11.3 | 0.00 | 0.00 | 0.00 | 25 | 1026.2 |
| 20260508105511 | 14 | 305 | 3.2 | 11.3 | 0.00 | 0.00 | 0.00 | 24 | 1026.2 |
| 20260508105007 | 14 | 303 | 3.2 | 14.5 | 0.00 | 0.00 | 0.00 | 25 | 1026.2 |
| 20260508104508 | 14 | 305 | 6.4 | 14.5 | 0.00 | 0.00 | 0.00 | 24 | 1026.2 |
| 20260508104009 | 15 | 10 | 4.8 | 9.7 | 0.00 | 0.00 | 0.00 | 26 | 1026.2 |
| 20260508103511 | 15 | 56 | 4.8 | 9.7 | 0.00 | 0.00 | 0.00 | 25 | 1026.2 |
| 20260508103011 | 15 | 63 | 3.2 | 9.7 | 0.00 | 0.00 | 0.00 | 25 | 1026.2 |
| 20260508102506 | 13 | 54 | 1.6 | 11.3 | 0.00 | 0.00 | 0.00 | 26 | 1026.2 |
| 20260508102011 | 14 | 303 | 4.8 | 22.5 | 0.00 | 0.00 | 0.00 | 26 | 1026.1 |
| 20260508101508 | 14 | 45 | 11.3 | 22.5 | 0.00 | 0.00 | 0.00 | 27 | 1026.1 |
| 20260508101006 | 15 | 110 | 8.0 | 17.7 | 0.00 | 0.00 | 0.00 | 27 | 1026.1 |
| 20260508100508 | 15 | 302 | 3.2 | 14.5 | 0.00 | 0.00 | 0.00 | 27 | 1026.0 |
| 20260508095508 | 14 | 319 | 4.8 | 9.7 | 0.00 | 0.00 | 0.00 | 28 | 1026.0 |
| 20260508095011 | 13 | 7 | 1.6 | 9.7 | 0.00 | 0.00 | 0.00 | 29 | 1026.0 |
| 20260508094510 | 13 | 320 | 3.2 | 11.3 | 0.00 | 0.00 | 0.00 | 29 | 1026.1 |
| 20260508093510 | 13 | 330 | 6.4 | 16.1 | 0.00 | 0.00 | 0.00 | 30 | 1026.0 |
| 20260508093010 | 13 | 344 | 4.8 | 16.1 | 0.00 | 0.00 | 0.00 | 30 | 1026.0 |
| 20260508092510 | 13 | 203 | 4.8 | 16.1 | 0.00 | 0.00 | 0.00 | 29 | 1026.1 |
| 20260508091507 | 13 | 343 | 4.8 | 11.3 | 0.00 | 0.00 | 0.00 | 30 | 1025.9 |
| 20260508091009 | 13 | 23 | 4.8 | 9.7 | 0.00 | 0.00 | 0.00 | 29 | 1025.9 |
| 20260508090509 | 13 | 338 | 6.4 | 9.7 | 0.00 | 0.00 | 0.00 | 30 | 1026.0 |
| 20260508090016 | 13 | 331 | 4.8 | 9.7 | 0.00 | 0.00 | 0.00 | 32 | 1026.1 |
| 20260508085509 | 13 | 18 | 4.8 | 9.7 | 0.00 | 0.00 | 0.00 | 31 | 1026.1 |
| 20260508085008 | 13 | 292 | 4.8 | 9.7 | 0.00 | 0.00 | 0.00 | 31 | 1026.1 |
| 20260508084508 | 13 | 351 | 1.6 | 11.3 | 0.00 | 0.00 | 0.00 | 32 | 1026.1 |
| 20260508084009 | 12 | 321 | 6.4 | 16.1 | 0.00 | 0.00 | 0.00 | 33 | 1026.1 |
| 20260508083507 | 12 | 309 | 4.8 | 16.1 | 0.00 | 0.00 | 0.00 | 34 | 1026.2 |
| 20260508082513 | 12 | 329 | 3.2 | 16.1 | 0.00 | 0.00 | 0.00 | 35 | 1026.1 |
| 20260508082008 | 12 | 341 | 4.8 | 16.1 | 0.00 | 0.00 | 0.00 | 34 | 1026.1 |
| 20260508081507 | 12 | 326 | 8.0 | 19.3 | 0.00 | 0.00 | 0.00 | 33 | 1026.1 |
| 20260508081011 | 12 | 289 | 3.2 | 19.3 | 0.00 | 0.00 | 0.00 | 33 | 1026.1 |
| 20260508080509 | 12 | 345 | 4.8 | 11.3 | 0.00 | 0.00 | 0.00 | 35 | 1026.0 |
| 20260508080016 | 11 | 341 | 8.0 | 16.1 | 0.00 | 0.00 | 0.00 | 35 | 1026.1 |
| 20260508075507 | 12 | 358 | 9.7 | 16.1 | 0.00 | 0.00 | 0.00 | 35 | 1026.1 |
| 20260508075007 | 12 | 278 | 8.0 | 16.1 | 0.00 | 0.00 | 0.00 | 36 | 1026.0 |
| 20260508074517 | 11 | 243 | 4.8 | 16.1 | 0.00 | 0.00 | 0.00 | 36 | 1026.0 |
| 20260508073511 | 12 | 10 | 3.2 | 16.1 | 0.00 | 0.00 | 0.00 | 36 | 1025.9 |
| 20260508073011 | 11 | 11 | 4.8 | 16.1 | 0.00 | 0.00 | 0.00 | 37 | 1025.9 |
| 20260508072508 | 11 | 331 | 9.7 | 16.1 | 0.00 | 0.00 | 0.00 | 37 | 1025.9 |
| 20260508072005 | 11 | 338 | 3.2 | 11.3 | 0.00 | 0.00 | 0.00 | 39 | 1025.9 |
| 20260508071512 | 11 | 314 | 6.4 | 11.3 | 0.00 | 0.00 | 0.00 | 39 | 1025.8 |
| 20260508071010 | 11 | 324 | 6.4 | 14.5 | 0.00 | 0.00 | 0.00 | 38 | 1025.7 |
| 20260508070023 | 11 | 59 | 6.4 | 16.1 | 0.00 | 0.00 | 0.00 | 40 | 1025.7 |
| 20260508065507 | 11 | 319 | 6.4 | 16.1 | 0.00 | 0.00 | 0.00 | 41 | 1025.7 |
| 20260508065010 | 11 | 282 | 6.4 | 16.1 | 0.00 | 0.00 | 0.00 | 41 | 1025.7 |
| 20260508064507 | 10 | 320 | 3.2 | 9.7 | 0.00 | 0.00 | 0.00 | 41 | 1025.6 |
| 20260508063506 | 10 | 48 | 4.8 | 11.3 | 0.00 | 0.00 | 0.00 | 43 | 1025.5 |
| 20260508063008 | 10 | 333 | 4.8 | 11.3 | 0.00 | 0.00 | 0.00 | 44 | 1025.5 |
| 20260508062505 | 10 | 334 | 6.4 | 9.7 | 0.00 | 0.00 | 0.00 | 45 | 1025.4 |
| 20260508062008 | 9 | 92 | 3.2 | 11.3 | 0.00 | 0.00 | 0.00 | 47 | 1025.4 |
| 20260508061007 | 9 | 345 | 3.2 | 8.0 | 0.00 | 0.00 | 0.00 | 48 | 1025.2 |
| 20260508060009 | 8 | 8 | 6.4 | 14.5 | 0.00 | 0.00 | 0.00 | 48 | 1025.2 |
| 20260508055515 | 8 | 302 | 1.6 | 6.4 | 0.00 | 0.00 | 0.00 | 49 | 1025.1 |
| 20260508055016 | 8 | 313 | 1.6 | 6.4 | 0.00 | 0.00 | 0.00 | 50 | 1025.0 |
| 20260508054512 | 8 | 307 | 3.2 | 11.3 | 0.00 | 0.00 | 0.00 | 51 | 1025.0 |
| 20260508054016 | 8 | 17 | 4.8 | 11.3 | 0.00 | 0.00 | 0.00 | 52 | 1024.9 |
| 20260508053511 | 7 | 357 | 1.6 | 8.0 | 0.00 | 0.00 | 0.00 | 53 | 1024.9 |
| 20260508053011 | 7 | 341 | 3.2 | 11.3 | 0.00 | 0.00 | 0.00 | 53 | 1024.9 |
| 20260508052510 | 7 | 0 | 4.8 | 11.3 | 0.00 | 0.00 | 0.00 | 54 | 1024.8 |
| 20260508052007 | 7 | 321 | 3.2 | 9.7 | 0.00 | 0.00 | 0.00 | 55 | 1024.8 |
| 20260508051507 | 7 | 330 | 3.2 | 8.0 | 0.00 | 0.00 | 0.00 | 56 | 1024.7 |
| 20260508050511 | 6 | 319 | 4.8 | 8.0 | 0.00 | 0.00 | 0.00 | 57 | 1024.6 |
| 20260508050016 | 6 | 337 | 4.8 | 8.0 | 0.00 | 0.00 | 0.00 | 57 | 1024.6 |
| 20260508045504 | 6 | 343 | 3.2 | 8.0 | 0.00 | 0.00 | 0.00 | 58 | 1024.6 |
| 20260508045010 | 6 | 323 | 3.2 | 6.4 | 0.00 | 0.00 | 0.00 | 58 | 1024.5 |
| 20260508044503 | 6 | 331 | 3.2 | 4.8 | 0.00 | 0.00 | 0.00 | 58 | 1024.3 |
| 20260508044005 | 6 | 336 | 1.6 | 8.0 | 0.00 | 0.00 | 0.00 | 59 | 1024.3 |
| 20260508043504 | 5 | 319 | 3.2 | 8.0 | 0.00 | 0.00 | 0.00 | 59 | 1024.3 |
| 20260508043005 | 5 | 344 | 3.2 | 4.8 | 0.00 | 0.00 | 0.00 | 60 | 1024.2 |
| 20260508042520 | 5 | 111 | 1.6 | 8.0 | 0.00 | 0.00 | 0.00 | 60 | 1024.2 |
| 20260508042000 | 5 | 341 | 3.2 | 8.0 | 0.00 | 0.00 | 0.00 | 61 | 1024.2 |
| 20260508040958 | 4 | 343 | 3.2 | 6.4 | 0.00 | 0.00 | 0.00 | 62 | 1024.0 |
| 20260508040501 | 4 | 338 | 3.2 | 8.0 | 0.00 | 0.00 | 0.00 | 62 | 1024.0 |
| 20260508035941 | 4 | 0 | 4.8 | 8.0 | 0.00 | 0.00 | 0.00 | 62 | 1023.9 |
| 20260508034930 | 3 | 344 | 1.6 | 4.8 | 0.00 | 0.00 | 0.00 | 63 | 1023.9 |
| 20260508034435 | 3 | 333 | 3.2 | 6.4 | 0.00 | 0.00 | 0.00 | 63 | 1023.8 |
| 20260508033932 | 3 | 337 | 4.8 | 6.4 | 0.00 | 0.00 | 0.00 | 64 | 1023.7 |
| 20260508033407 | 3 | 344 | 1.6 | 6.4 | 0.00 | 0.00 | 0.00 | 64 | 1023.6 |
| 20260508032915 | 3 | 330 | 3.2 | 6.4 | 0.00 | 0.00 | 0.00 | 65 | 1023.5 |
| 20260508032414 | 3 | 340 | 3.2 | 6.4 | 0.00 | 0.00 | 0.00 | 65 | 1023.5 |
| 20260508031912 | 2 | 348 | 3.2 | 6.4 | 0.00 | 0.00 | 0.00 | 66 | 1023.4 |
| 20260508031410 | 2 | 337 | 1.6 | 6.4 | 0.00 | 0.00 | 0.00 | 66 | 1023.4 |
| 20260508030914 | 2 | 347 | 3.2 | 6.4 | 0.00 | 0.00 | 0.00 | 66 | 1023.4 |
| 20260508030409 | 2 | 348 | 3.2 | 6.4 | 0.00 | 0.00 | 0.00 | 66 | 1023.3 |
| 20260508025912 | 2 | 302 | 3.2 | 6.4 | 0.00 | 0.00 | 0.00 | 66 | 1023.2 |
| 20260508025409 | 2 | 338 | 3.2 | 6.4 | 0.00 | 0.00 | 0.00 | 66 | 1023.2 |
| 20260508024402 | 2 | 340 | 1.6 | 4.8 | 0.00 | 0.00 | 0.00 | 67 | 1023.0 |
| 20260508022904 | 2 | 337 | 3.2 | 4.8 | 0.00 | 0.00 | 0.00 | 67 | 1022.9 |
| 20260508022401 | 2 | 344 | 3.2 | 4.8 | 0.00 | 0.00 | 0.00 | 66 | 1022.8 |
| 20260508021356 | 2 | 341 | 1.6 | 4.8 | 0.00 | 0.00 | 0.00 | 66 | 1022.7 |
| 20260508020856 | 2 | 347 | 3.2 | 4.8 | 0.00 | 0.00 | 0.00 | 65 | 1022.6 |
| 20260508020352 | 2 | 343 | 1.6 | 4.8 | 0.00 | 0.00 | 0.00 | 65 | 1022.6 |
| 20260508015835 | 2 | 354 | 3.2 | 4.8 | 0.00 | 0.00 | 0.00 | 64 | 1022.5 |
| 20260508015336 | 2 | 338 | 3.2 | 4.8 | 0.00 | 0.00 | 0.00 | 64 | 1022.4 |
| 20260508014833 | 2 | 336 | 1.6 | 4.8 | 0.00 | 0.00 | 0.00 | 64 | 1022.4 |
| 20260508014311 | 2 | 345 | 3.2 | 4.8 | 0.00 | 0.00 | 0.00 | 64 | 1022.4 |
| 20260508013811 | 2 | 343 | 3.2 | 4.8 | 0.00 | 0.00 | 0.00 | 64 | 1022.4 |
| 20260508013311 | 2 | 348 | 3.2 | 4.8 | 0.00 | 0.00 | 0.00 | 63 | 1022.3 |
| 20260508012826 | 2 | 324 | 1.6 | 4.8 | 0.00 | 0.00 | 0.00 | 63 | 1022.2 |
| 20260508012311 | 2 | 340 | 3.2 | 8.0 | 0.00 | 0.00 | 0.00 | 63 | 1022.2 |
| 20260508011810 | 2 | 343 | 3.2 | 8.0 | 0.00 | 0.00 | 0.00 | 63 | 1022.1 |
| 20260508010807 | 2 | 341 | 1.6 | 4.8 | 0.00 | 0.00 | 0.00 | 63 | 1022.1 |
| 20260508010316 | 2 | 350 | 3.2 | 4.8 | 0.00 | 0.00 | 0.00 | 63 | 1021.9 |
| 20260508005818 | 3 | 344 | 1.6 | 3.2 | 0.00 | 0.00 | 0.00 | 62 | 1021.9 |
| 20260508005313 | 3 | 343 | 1.6 | 3.2 | 0.00 | 0.00 | 0.00 | 61 | 1021.8 |
| 20260508004819 | 3 | 331 | 1.6 | 4.8 | 0.00 | 0.00 | 0.00 | 61 | 1021.9 |
| 20260508004313 | 3 | 350 | 1.6 | 4.8 | 0.00 | 0.00 | 0.00 | 61 | 1021.8 |
| 20260508003808 | 3 | 348 | 1.6 | 4.8 | 0.00 | 0.00 | 0.00 | 60 | 1021.7 |
| 20260508003310 | 3 | 338 | 1.6 | 3.2 | 0.00 | 0.00 | 0.00 | 60 | 1021.6 |
| 20260508002811 | 3 | 0 | 1.6 | 4.8 | 0.00 | 0.00 | 0.00 | 59 | 1021.6 |
| 20260508002308 | 3 | 350 | 3.2 | 4.8 | 0.00 | 0.00 | 0.00 | 59 | 1021.5 |
| 20260508001810 | 3 | 343 | 1.6 | 4.8 | 0.00 | 0.00 | 0.00 | 59 | 1021.4 |
| 20260508001308 | 4 | 353 | 3.2 | 4.8 | 0.00 | 0.00 | 0.00 | 59 | 1021.4 |
| 20260508000809 | 4 | 351 | 1.6 | 4.8 | 0.00 | 0.00 | 0.00 | 59 | 1021.2 |
| 20260508000312 | 4 | 334 | 3.2 | 6.4 | 0.00 | 0.00 | 0.00 | 59 | 1021.2 |
| 20260507235811 | 4 | 333 | 3.2 | 6.4 | 0.00 | 0.00 | 0.00 | 59 | 1021.2 |
| 20260507235313 | 4 | 345 | 1.6 | 4.8 | 0.00 | 0.00 | 0.00 | 59 | 1021.1 |
| 20260507234809 | 4 | 300 | 3.2 | 6.4 | 0.00 | 0.00 | 0.00 | 59 | 1021.0 |
| 20260507234309 | 4 | 341 | 3.2 | 6.4 | 0.00 | 0.00 | 0.00 | 58 | 1021.0 |
| 20260507233810 | 5 | 345 | 3.2 | 6.4 | 0.00 | 0.00 | 0.00 | 58 | 1020.9 |
| 20260507233309 | 5 | 343 | 3.2 | 6.4 | 0.00 | 0.00 | 0.00 | 58 | 1020.9 |
| 20260507232807 | 5 | 338 | 3.2 | 6.4 | 0.00 | 0.00 | 0.00 | 57 | 1020.8 |
| 20260507231806 | 5 | 337 | 1.6 | 6.4 | 0.00 | 0.00 | 0.00 | 57 | 1020.7 |
| 20260507231311 | 5 | 313 | 3.2 | 6.4 | 0.00 | 0.00 | 0.00 | 56 | 1020.7 |
| 20260507230807 | 5 | 344 | 3.2 | 6.4 | 0.00 | 0.00 | 0.00 | 56 | 1020.6 |
| 20260507230306 | 5 | 312 | 3.2 | 6.4 | 0.00 | 0.00 | 0.00 | 56 | 1020.5 |
| 20260507225805 | 5 | 0 | 1.6 | 6.4 | 0.00 | 0.00 | 0.00 | 56 | 1020.4 |
| 20260507225305 | 5 | 333 | 3.2 | 6.4 | 0.00 | 0.00 | 0.00 | 55 | 1020.4 |
| 20260507224803 | 5 | 344 | 3.2 | 4.8 | 0.00 | 0.00 | 0.00 | 55 | 1020.3 |
| 20260507224306 | 5 | 326 | 3.2 | 4.8 | 0.00 | 0.00 | 0.00 | 54 | 1020.3 |
| 20260507223803 | 5 | 310 | 3.2 | 4.8 | 0.00 | 0.00 | 0.00 | 54 | 1020.2 |
| 20260507223302 | 5 | 338 | 3.2 | 4.8 | 0.00 | 0.00 | 0.00 | 54 | 1020.1 |
| 20260507222803 | 5 | 337 | 1.6 | 6.4 | 0.00 | 0.00 | 0.00 | 54 | 1020.1 |
| 20260507221803 | 5 | 345 | 1.6 | 6.4 | 0.00 | 0.00 | 0.00 | 54 | 1020.0 |
| 20260507221302 | 5 | 344 | 3.2 | 6.4 | 0.00 | 0.00 | 0.00 | 54 | 1020.0 |
| 20260507220303 | 5 | 353 | 1.6 | 4.8 | 0.00 | 0.00 | 0.00 | 54 | 1019.8 |
| 20260507215803 | 5 | 338 | 1.6 | 4.8 | 0.00 | 0.00 | 0.00 | 54 | 1019.8 |
| 20260507215302 | 5 | 323 | 1.6 | 4.8 | 0.00 | 0.00 | 0.00 | 54 | 1019.8 |
| 20260507214802 | 5 | 353 | 1.6 | 4.8 | 0.00 | 0.00 | 0.00 | 55 | 1019.6 |
| 20260507214302 | 5 | 354 | 0.0 | 1.6 | 0.00 | 0.00 | 0.00 | 55 | 1019.7 |
| 20260507213302 | 5 | 354 | 0.0 | 4.8 | 0.00 | 0.00 | 0.00 | 55 | 1019.5 |
| 20260507212813 | 5 | 354 | 0.0 | 4.8 | 0.00 | 0.00 | 0.00 | 57 | 1019.4 |
| 20260507211803 | 5 | 345 | 0.0 | 3.2 | 0.00 | 0.00 | 0.00 | 57 | 1019.3 |
| 20260507211302 | 5 | 345 | 0.0 | 4.8 | 0.00 | 0.00 | 0.00 | 56 | 1019.3 |
| 20260507210805 | 5 | 344 | 0.0 | 4.8 | 0.00 | 0.00 | 0.00 | 56 | 1019.1 |
| 20260507210302 | 5 | 317 | 0.0 | 3.2 | 0.00 | 0.00 | 0.00 | 56 | 1019.1 |
| 20260507205803 | 5 | 337 | 1.6 | 3.2 | 0.00 | 0.00 | 0.00 | 56 | 1019.0 |
| 20260507205306 | 5 | 331 | 0.0 | 3.2 | 0.00 | 0.00 | 0.00 | 58 | 1019.0 |
| 20260507204746 | 5 | 331 | 0.0 | 4.8 | 0.00 | 0.00 | 0.00 | 54 | 1018.9 |
| 20260507204238 | 5 | 333 | 1.6 | 4.8 | 0.00 | 0.00 | 0.00 | 51 | 1018.9 |
| 20260507203736 | 5 | 358 | 1.6 | 4.8 | 0.00 | 0.00 | 0.00 | 51 | 1018.8 |
| 20260507203237 | 5 | 309 | 0.0 | 3.2 | 0.00 | 0.00 | 0.00 | 52 | 1018.7 |
| 20260507202737 | 6 | 323 | 0.0 | 3.2 | 0.00 | 0.00 | 0.00 | 51 | 1018.6 |
| 20260507202231 | 6 | 323 | 0.0 | 3.2 | 0.00 | 0.00 | 0.00 | 51 | 1018.6 |
| 20260507201732 | 6 | 348 | 0.0 | 3.2 | 0.00 | 0.00 | 0.00 | 52 | 1018.5 |
| 20260507201230 | 6 | 344 | 0.0 | 0.0 | 0.00 | 0.00 | 0.00 | 50 | 1018.5 |
| 20260507200738 | 6 | 348 | 0.0 | 0.0 | 0.00 | 0.00 | 0.00 | 49 | 1018.3 |
| 20260507195722 | 6 | 348 | 3.2 | 4.8 | 0.00 | 0.00 | 0.00 | 46 | 1018.2 |
| 20260507195218 | 6 | 343 | 1.6 | 3.2 | 0.00 | 0.00 | 0.00 | 45 | 1018.2 |
| 20260507194708 | 6 | 343 | 0.0 | 6.4 | 0.00 | 0.00 | 0.00 | 47 | 1018.1 |
| 20260507194207 | 6 | 348 | 1.6 | 6.4 | 0.00 | 0.00 | 0.00 | 45 | 1018.0 |
| 20260507193706 | 6 | 331 | 1.6 | 4.8 | 0.00 | 0.00 | 0.00 | 45 | 1017.9 |
| 20260507193207 | 6 | 340 | 0.0 | 3.2 | 0.00 | 0.00 | 0.00 | 45 | 1017.9 |
| 20260507192710 | 6 | 337 | 1.6 | 4.8 | 0.00 | 0.00 | 0.00 | 47 | 1017.8 |
| 20260507192206 | 6 | 337 | 1.6 | 4.8 | 0.00 | 0.00 | 0.00 | 47 | 1017.7 |
| 20260507191706 | 6 | 300 | 1.6 | 3.2 | 0.00 | 0.00 | 0.00 | 45 | 1017.6 |
| 20260507190703 | 6 | 200 | 0.0 | 0.0 | 0.00 | 0.00 | 0.00 | 46 | 1017.5 |
| 20260507190206 | 6 | 200 | 0.0 | 0.0 | 0.00 | 0.00 | 0.00 | 48 | 1017.3 |
| 20260507185703 | 6 | 200 | 0.0 | 0.0 | 0.00 | 0.00 | 0.00 | 47 | 1017.3 |
| 20260507185203 | 7 | 200 | 0.0 | 0.0 | 0.00 | 0.00 | 0.00 | 44 | 1017.3 |
| 20260507184707 | 7 | 200 | 0.0 | 0.0 | 0.00 | 0.00 | 0.00 | 46 | 1017.3 |
| 20260507184205 | 7 | 200 | 0.0 | 0.0 | 0.00 | 0.00 | 0.00 | 45 | 1017.2 |
| 20260507183705 | 7 | 200 | 0.0 | 0.0 | 0.00 | 0.00 | 0.00 | 43 | 1017.2 |
| 20260507183202 | 7 | 200 | 0.0 | 0.0 | 0.00 | 0.00 | 0.00 | 44 | 1017.0 |
| 20260507182704 | 7 | 200 | 0.0 | 0.0 | 0.00 | 0.00 | 0.00 | 44 | 1016.9 |
| 20260507182205 | 7 | 200 | 0.0 | 0.0 | 0.00 | 0.00 | 0.00 | 42 | 1016.9 |
| 20260507181702 | 7 | 200 | 0.0 | 0.0 | 0.00 | 0.00 | 0.00 | 45 | 1016.8 |
| 20260507180702 | 8 | 200 | 1.6 | 6.4 | 0.00 | 0.00 | 0.00 | 42 | 1016.6 |
| 20260507175702 | 8 | 190 | 0.0 | 3.2 | 0.00 | 0.00 | 0.00 | 42 | 1016.6 |
| 20260507175152 | 8 | 190 | 0.0 | 3.2 | 0.00 | 0.00 | 0.00 | 43 | 1016.6 |
| 20260507174133 | 8 | 123 | 0.0 | 3.2 | 0.00 | 0.00 | 0.00 | 40 | 1016.5 |
| 20260507173633 | 9 | 123 | 0.0 | 3.2 | 0.00 | 0.00 | 0.00 | 39 | 1016.5 |
| 20260507172630 | 9 | 123 | 0.0 | 3.2 | 0.00 | 0.00 | 0.00 | 37 | 1016.4 |
| 20260507171115 | 10 | 123 | 1.6 | 3.2 | 0.00 | 0.00 | 0.00 | 37 | 1016.3 |
| 20260507170609 | 10 | 147 | 0.0 | 3.2 | 0.00 | 0.00 | 0.00 | 35 | 1016.3 |
| 20260507170107 | 10 | 157 | 1.6 | 4.8 | 0.00 | 0.00 | 0.00 | 35 | 1016.3 |
| 20260507165609 | 10 | 197 | 3.2 | 4.8 | 0.00 | 0.00 | 0.00 | 37 | 1016.3 |
| 20260507165108 | 10 | 192 | 1.6 | 3.2 | 0.00 | 0.00 | 0.00 | 37 | 1016.3 |
| 20260507164607 | 10 | 192 | 1.6 | 4.8 | 0.00 | 0.00 | 0.00 | 36 | 1016.2 |
| 20260507164106 | 11 | 131 | 1.6 | 4.8 | 0.00 | 0.00 | 0.00 | 33 | 1016.2 |
| 20260507163606 | 11 | 190 | 1.6 | 6.4 | 0.00 | 0.00 | 0.00 | 32 | 1016.1 |
| 20260507163113 | 11 | 117 | 0.0 | 6.4 | 0.00 | 0.00 | 0.00 | 33 | 1016.2 |
| 20260507162605 | 11 | 197 | 1.6 | 4.8 | 0.00 | 0.00 | 0.00 | 30 | 1016.1 |
| 20260507162106 | 11 | 188 | 1.6 | 4.8 | 0.00 | 0.00 | 0.00 | 30 | 1016.1 |
| 20260507161609 | 11 | 212 | 1.6 | 14.5 | 0.00 | 0.00 | 0.00 | 31 | 1016.0 |
| 20260507161111 | 11 | 161 | 4.8 | 14.5 | 0.00 | 0.00 | 0.00 | 32 | 1016.0 |
| 20260507160609 | 12 | 203 | 3.2 | 6.4 | 0.00 | 0.00 | 0.00 | 31 | 1015.8 |
| 20260507160105 | 12 | 180 | 3.2 | 8.0 | 0.00 | 0.00 | 0.00 | 31 | 1015.8 |
| 20260507155606 | 12 | 0 | 4.8 | 8.0 | 0.00 | 0.00 | 0.00 | 30 | 1015.7 |
| 20260507155107 | 12 | 1 | 1.6 | 8.0 | 0.00 | 0.00 | 0.00 | 30 | 1015.7 |
| 20260507154608 | 12 | 104 | 1.6 | 8.0 | 0.00 | 0.00 | 0.00 | 29 | 1015.6 |
| 20260507154108 | 12 | 87 | 3.2 | 6.4 | 0.00 | 0.00 | 0.00 | 31 | 1015.7 |
| 20260507153605 | 12 | 207 | 3.2 | 9.7 | 0.00 | 0.00 | 0.00 | 31 | 1015.6 |
| 20260507153106 | 12 | 309 | 4.8 | 11.3 | 0.00 | 0.00 | 0.00 | 29 | 1015.5 |
| 20260507152607 | 12 | 147 | 6.4 | 11.3 | 0.00 | 0.00 | 0.00 | 28 | 1015.5 |
| 20260507152108 | 12 | 123 | 4.8 | 11.3 | 0.00 | 0.00 | 0.00 | 30 | 1015.4 |
| 20260507151606 | 12 | 109 | 3.2 | 20.9 | 0.00 | 0.00 | 0.00 | 30 | 1015.4 |
| 20260507151104 | 12 | 118 | 4.8 | 20.9 | 0.00 | 0.00 | 0.00 | 27 | 1015.4 |
| 20260507150607 | 13 | 123 | 3.2 | 8.0 | 0.00 | 0.00 | 0.00 | 28 | 1015.4 |
| 20260507150106 | 13 | 125 | 3.2 | 8.0 | 0.00 | 0.00 | 0.00 | 29 | 1015.4 |
| 20260507145609 | 13 | 127 | 3.2 | 11.3 | 0.00 | 0.00 | 0.00 | 31 | 1015.5 |
| 20260507145106 | 13 | 231 | 3.2 | 11.3 | 0.00 | 0.00 | 0.00 | 32 | 1015.4 |
| 20260507144609 | 13 | 89 | 4.8 | 9.7 | 0.00 | 0.00 | 0.00 | 29 | 1015.4 |
| 20260507144105 | 13 | 196 | 3.2 | 8.0 | 0.00 | 0.00 | 0.00 | 29 | 1015.4 |
| 20260507143607 | 13 | 49 | 4.8 | 11.3 | 0.00 | 0.00 | 0.00 | 28 | 1015.4 |
| 20260507143108 | 13 | 113 | 3.2 | 11.3 | 0.00 | 0.00 | 0.00 | 28 | 1015.3 |
| 20260507142607 | 13 | 171 | 4.8 | 11.3 | 0.00 | 0.00 | 0.00 | 29 | 1015.3 |
| 20260507142108 | 13 | 82 | 1.6 | 11.3 | 0.00 | 0.00 | 0.00 | 29 | 1015.2 |
| 20260507141606 | 13 | 78 | 3.2 | 11.3 | 0.00 | 0.00 | 0.00 | 29 | 1015.2 |
| 20260507140124 | 13 | 142 | 3.2 | 9.7 | 0.00 | 0.00 | 0.00 | 29 | 1015.1 |
| 20260507135609 | 13 | 94 | 4.8 | 11.3 | 0.00 | 0.00 | 0.00 | 28 | 1015.2 |
| 20260507135105 | 13 | 159 | 6.4 | 11.3 | 0.00 | 0.00 | 0.00 | 28 | 1015.2 |
| 20260507134609 | 13 | 155 | 3.2 | 11.3 | 0.00 | 0.00 | 0.00 | 30 | 1015.2 |
| 20260507134109 | 13 | 79 | 3.2 | 11.3 | 0.00 | 0.00 | 0.00 | 29 | 1015.1 |
| 20260507133605 | 13 | 124 | 3.2 | 11.3 | 0.00 | 0.00 | 0.00 | 29 | 1015.2 |
| 20260507133106 | 13 | 178 | 3.2 | 11.3 | 0.00 | 0.00 | 0.00 | 29 | 1015.2 |
| 20260507132607 | 13 | 113 | 4.8 | 8.0 | 0.00 | 0.00 | 0.00 | 30 | 1015.1 |
| 20260507132105 | 13 | 127 | 3.2 | 8.0 | 0.00 | 0.00 | 0.00 | 30 | 1015.2 |
| 20260507131607 | 13 | 299 | 3.2 | 8.0 | 0.00 | 0.00 | 0.00 | 30 | 1015.2 |
| 20260507131121 | 13 | 247 | 3.2 | 6.4 | 0.00 | 0.00 | 0.00 | 30 | 1015.2 |
| 20260507130606 | 13 | 179 | 1.6 | 9.7 | 0.00 | 0.00 | 0.00 | 30 | 1015.2 |
| 20260507130112 | 13 | 114 | 6.4 | 17.7 | 0.00 | 0.00 | 0.00 | 30 | 1015.3 |
| 20260507125605 | 13 | 262 | 6.4 | 17.7 | 0.00 | 0.00 | 0.00 | 29 | 1015.2 |
| 20260507125108 | 13 | 338 | 3.2 | 16.1 | 0.00 | 0.00 | 0.00 | 29 | 1015.3 |
| 20260507124609 | 13 | 59 | 6.4 | 16.1 | 0.00 | 0.00 | 0.00 | 29 | 1015.2 |
| 20260507124106 | 13 | 79 | 8.0 | 16.1 | 0.00 | 0.00 | 0.00 | 29 | 1015.2 |
| 20260507123605 | 13 | 155 | 6.4 | 16.1 | 0.00 | 0.00 | 0.00 | 29 | 1015.2 |
| 20260507123105 | 13 | 161 | 9.7 | 16.1 | 0.00 | 0.00 | 0.00 | 29 | 1015.1 |
| 20260507122607 | 13 | 176 | 4.8 | 9.7 | 0.00 | 0.00 | 0.00 | 29 | 1015.1 |
| 20260507122109 | 13 | 141 | 3.2 | 8.0 | 0.00 | 0.00 | 0.00 | 28 | 1015.1 |
| 20260507121605 | 13 | 66 | 3.2 | 9.7 | 0.00 | 0.00 | 0.00 | 27 | 1015.0 |
| 20260507121109 | 14 | 272 | 1.6 | 9.7 | 0.00 | 0.00 | 0.00 | 27 | 1015.0 |
| 20260507120606 | 13 | 173 | 0.0 | 4.8 | 0.00 | 0.00 | 0.00 | 28 | 1015.0 |
| 20260507120104 | 13 | 307 | 1.6 | 8.0 | 0.00 | 0.00 | 0.00 | 27 | 1015.1 |